Location: Bremen
(53.0793°N, 8.8017°E)
Time: 06:31:21
(UTC+02:00)

Explorer 7 - Pass Details

Date: 16 April 2024
Orbit: 467 x 626 km, 50.3° (Epoch: 17 May)

Event Time Altitude Azimuth Distance (km) Brightness Sun altitude
Rises 19:05:13 0° 279° (W) 2,882 12.6 11.2°
Reaches altitude 10° 19:07:45 10° 269° (W) 1,955 13.1 10.9°
Maximum altitude 19:11:40 30° 209° (SSW) 1,062 8.7 10.3°
Drops below altitude 10° 19:15:25 10° 148° (SSE) 1,866 9.2 9.7°
Sets 19:17:48 0° 137° (SE) 2,729 9.9 9.4°
